Simultaneous Nadir Overpasses (SNOs) Predictions

Prediction of SNOs between GOES-15 and NOAA-20 Satellite Orbit:

Table of predicted SNOs for the next 14.0 days since TLE Epoch: 1/27/2024
Index Date Time (GOES-15) GOES-15 Lat,Lon NOAA-20 Lat,Lon Distance(km) Time Diff (sec)
1 01/28/2024 09:21:18 0.03, 61.77 -0.24, 60.70 122.94 80
2 01/29/2024 09:05:14 0.03, 61.75 0.81, 65.22 395.40 80
3 01/30/2024 21:27:03 -0.03, 61.63 0.33, 59.94 192.23 80
4 01/31/2024 21:05:39 -0.03, 61.62 -0.66, 64.47 325.46 80
5 02/02/2024 09:27:36 0.03, 61.69 -0.52, 59.17 287.56 80
6 02/03/2024 09:11:32 0.02, 61.68 0.48, 63.70 230.18 80
7 02/04/2024 21:33:20 0.01, 61.57 0.71, 58.43 357.16 80
8 02/05/2024 21:11:56 0.01, 61.56 -0.29, 62.97 159.73 80
9 02/07/2024 09:33:53 -0.01, 61.66 -0.88, 57.66 455.62 80
10 02/08/2024 09:17:48 -0.01, 61.65 0.12, 62.19 61.07 80
